UAL2008 KORD-KMCO

Flight info

Callsign UAL2008
Flight time 2h 2m
Altitude 39000
Route DENNT DARCY DREGS DUMGE SCOTO SWAPP Q79 THRSR ZJAYX GRNCH5
Aircraft B77W/H-SDE1E2E3FGHIJ2J3J4J5M1RWXY/LB1D1

Departure

Time 2026-04-24 22:26
Airport Chicago O'Hare International Airport (KORD)

Arrival

Time 2026-04-25 00:28
Airport Orlando International Airport (KMCO)
Time Latitude Longitude Altitude Speed Heading
2026-04-24 21:40 41.97862 -87.90952 671 ft 0 kts 280°
2026-04-24 22:04 41.97862 -87.90951 671 ft 0 kts 280°
2026-04-24 22:05 41.97860 -87.90933 671 ft 2 kts 280°
2026-04-24 22:05 41.97857 -87.90913 671 ft 2 kts 280°
2026-04-24 22:05 41.97854 -87.90894 671 ft 2 kts 280°
2026-04-24 22:05 41.97851 -87.90874 671 ft 2 kts 280°
2026-04-24 22:06 41.97848 -87.90854 671 ft 2 kts 280°
2026-04-24 22:06 41.97848 -87.90848 671 ft 0 kts 280°
2026-04-24 22:10 41.97848 -87.90855 671 ft 2 kts 277°
2026-04-24 22:10 41.97837 -87.90886 671 ft 6 kts 215°
2026-04-24 22:10 41.97796 -87.90909 671 ft 6 kts 190°
2026-04-24 22:11 41.97751 -87.90921 671 ft 6 kts 193°
2026-04-24 22:11 41.97710 -87.90924 671 ft 6 kts 176°
2026-04-24 22:11 41.97668 -87.90920 671 ft 6 kts 176°
2026-04-24 22:11 41.97626 -87.90917 671 ft 5 kts 176°
2026-04-24 22:12 41.97585 -87.90915 671 ft 5 kts 184°
2026-04-24 22:12 41.97558 -87.90932 672 ft 3 kts 230°
2026-04-24 22:12 41.97552 -87.90945 672 ft 1 kts 245°
2026-04-24 22:12 41.97542 -87.90976 673 ft 4 kts 248°
2026-04-24 22:13 41.97530 -87.91015 674 ft 5 kts 247°
2026-04-24 22:13 41.97497 -87.91053 674 ft 8 kts 188°
2026-04-24 22:13 41.97451 -87.91021 674 ft 7 kts 140°
2026-04-24 22:13 41.97408 -87.90972 674 ft 8 kts 139°
2026-04-24 22:14 41.97368 -87.90923 674 ft 8 kts 138°
2026-04-24 22:14 41.97324 -87.90867 674 ft 8 kts 135°
2026-04-24 22:14 41.97277 -87.90801 674 ft 10 kts 130°
2026-04-24 22:14 41.97238 -87.90723 674 ft 10 kts 115°
2026-04-24 22:15 41.97218 -87.90627 672 ft 11 kts 98°
2026-04-24 22:15 41.97212 -87.90512 671 ft 12 kts 93°
2026-04-24 22:15 41.97207 -87.90395 671 ft 12 kts 93°
2026-04-24 22:15 41.97205 -87.90279 670 ft 12 kts 90°
2026-04-24 22:16 41.97205 -87.90201 668 ft 4 kts 91°
2026-04-24 22:16 41.97194 -87.90156 668 ft 5 kts 123°
2026-04-24 22:16 41.97161 -87.90134 668 ft 6 kts 180°
2026-04-24 22:16 41.97115 -87.90134 667 ft 6 kts 180°
2026-04-24 22:17 41.97068 -87.90131 667 ft 6 kts 162°
2026-04-24 22:17 41.97042 -87.90081 666 ft 8 kts 101°
2026-04-24 22:17 41.97042 -87.90000 665 ft 9 kts 90°
2026-04-24 22:17 41.97042 -87.89905 665 ft 11 kts 90°
2026-04-24 22:18 41.97042 -87.89780 663 ft 15 kts 89°
2026-04-24 22:18 41.97044 -87.89615 661 ft 17 kts 89°
2026-04-24 22:18 41.97044 -87.89453 661 ft 16 kts 90°
2026-04-24 22:18 41.97042 -87.89299 661 ft 16 kts 91°
2026-04-24 22:19 41.97042 -87.89152 661 ft 15 kts 89°
2026-04-24 22:19 41.97044 -87.89012 661 ft 14 kts 89°
2026-04-24 22:19 41.97045 -87.88875 661 ft 14 kts 89°
2026-04-24 22:19 41.97045 -87.88743 661 ft 13 kts 92°
2026-04-24 22:20 41.97044 -87.88618 661 ft 13 kts 89°
2026-04-24 22:20 41.97044 -87.88495 661 ft 12 kts 89°
2026-04-24 22:20 41.97046 -87.88377 661 ft 12 kts 89°
2026-04-24 22:20 41.97045 -87.88261 661 ft 12 kts 91°
2026-04-24 22:21 41.97044 -87.88205 661 ft 2 kts 90°
2026-04-24 22:21 41.97044 -87.88167 660 ft 5 kts 89°
2026-04-24 22:21 41.97045 -87.88148 660 ft 0 kts 89°
2026-04-24 22:22 41.97045 -87.88147 660 ft 0 kts 89°
2026-04-24 22:23 41.97045 -87.88128 659 ft 3 kts 90°
2026-04-24 22:23 41.97039 -87.88089 659 ft 5 kts 114°
2026-04-24 22:23 41.97018 -87.88052 658 ft 3 kts 130°
2026-04-24 22:23 41.97002 -87.88025 658 ft 2 kts 130°
2026-04-24 22:24 41.96991 -87.88009 658 ft 2 kts 137°
2026-04-24 22:24 41.96979 -87.88003 658 ft 1 kts 175°
2026-04-24 22:24 41.96972 -87.88005 658 ft 1 kts 203°
2026-04-24 22:24 41.96968 -87.88009 658 ft 0 kts 219°
2026-04-24 22:25 41.96961 -87.88017 658 ft 0 kts 221°
2026-04-24 22:25 41.96941 -87.88040 659 ft 19 kts 221°
2026-04-24 22:25 41.96602 -87.88442 661 ft 111 kts 221°
2026-04-24 22:26 41.95804 -87.89378 806 ft 180 kts 224°
2026-04-24 22:26 41.94828 -87.90513 1720 ft 194 kts 224°
2026-04-24 22:26 41.93803 -87.91650 2597 ft 198 kts 224°
2026-04-24 22:26 41.92682 -87.92848 3100 ft 216 kts 220°
2026-04-24 22:27 41.91211 -87.93578 3619 ft 244 kts 184°
2026-04-24 22:27 41.89477 -87.93129 4269 ft 263 kts 165°
2026-04-24 22:27 41.87684 -87.92364 4919 ft 279 kts 164°
2026-04-24 22:27 41.85821 -87.91550 5765 ft 286 kts 164°
2026-04-24 22:28 41.83943 -87.90730 6711 ft 289 kts 165°
2026-04-24 22:28 41.82030 -87.89894 7582 ft 294 kts 165°
2026-04-24 22:28 41.80080 -87.89043 8492 ft 297 kts 164°
2026-04-24 22:28 41.78104 -87.88181 9304 ft 303 kts 165°
2026-04-24 22:29 41.74028 -87.86406 10809 ft 320 kts 164°
2026-04-24 22:29 41.71876 -87.85471 11346 ft 337 kts 165°
2026-04-24 22:29 41.69570 -87.84470 11922 ft 353 kts 164°
2026-04-24 22:30 41.67178 -87.83431 12510 ft 369 kts 164°
2026-04-24 22:30 41.64698 -87.82354 13153 ft 383 kts 164°
2026-04-24 22:30 41.62097 -87.81224 13783 ft 398 kts 164°
2026-04-24 22:30 41.59449 -87.80074 14693 ft 404 kts 164°
2026-04-24 22:31 41.56817 -87.78930 15798 ft 405 kts 164°
2026-04-24 22:31 41.54125 -87.77761 16874 ft 406 kts 165°
2026-04-24 22:31 41.51448 -87.76600 17811 ft 410 kts 165°
2026-04-24 22:31 41.48704 -87.75411 18760 ft 413 kts 165°
2026-04-24 22:32 41.45990 -87.74236 19576 ft 419 kts 165°
2026-04-24 22:32 41.43160 -87.73103 20374 ft 423 kts 170°
2026-04-24 22:32 41.40256 -87.72551 21209 ft 423 kts 180°
2026-04-24 22:32 41.37299 -87.72491 22022 ft 425 kts 183°
2026-04-24 22:33 41.34327 -87.72505 22803 ft 429 kts 183°
2026-04-24 22:33 41.31354 -87.72523 23559 ft 433 kts 183°
2026-04-24 22:33 41.28326 -87.72540 24304 ft 437 kts 183°
2026-04-24 22:33 41.25282 -87.72557 25120 ft 439 kts 183°
2026-04-24 22:34 41.22250 -87.72573 25934 ft 440 kts 184°
2026-04-24 22:34 41.19166 -87.72446 26684 ft 446 kts 179°
2026-04-24 22:34 41.16050 -87.72044 27351 ft 451 kts 178°
2026-04-24 22:34 41.12934 -87.71618 28074 ft 455 kts 178°
2026-04-24 22:35 41.09812 -87.71191 28846 ft 456 kts 178°
2026-04-24 22:35 41.06631 -87.70758 29625 ft 458 kts 179°
2026-04-24 22:35 41.03403 -87.70319 30513 ft 457 kts 179°
2026-04-24 22:35 41.00278 -87.69895 31559 ft 451 kts 178°
2026-04-24 22:36 40.97171 -87.69473 32571 ft 445 kts 179°
2026-04-24 22:36 40.94134 -87.69064 33413 ft 441 kts 179°
2026-04-24 22:36 40.91060 -87.68649 34283 ft 437 kts 179°
2026-04-24 22:36 40.88079 -87.68250 35012 ft 435 kts 179°
2026-04-24 22:37 40.85079 -87.67847 35852 ft 432 kts 179°
2026-04-24 22:37 40.82090 -87.67445 36701 ft 428 kts 179°
2026-04-24 22:37 40.79107 -87.67049 36829 ft 433 kts 179°
2026-04-24 22:37 40.76080 -87.66645 36825 ft 434 kts 179°
2026-04-24 22:38 40.70072 -87.65842 36827 ft 430 kts 179°
2026-04-24 22:38 40.64170 -87.65056 36820 ft 432 kts 179°
2026-04-24 22:39 40.58166 -87.64258 36825 ft 431 kts 179°
2026-04-24 22:39 40.52203 -87.63466 36822 ft 430 kts 179°
2026-04-24 22:40 40.46248 -87.62677 36817 ft 431 kts 179°
2026-04-24 22:40 40.40238 -87.61883 36837 ft 433 kts 179°
2026-04-24 22:41 40.34271 -87.61048 36844 ft 433 kts 176°
2026-04-24 22:41 40.28409 -87.58701 36868 ft 446 kts 161°
2026-04-24 22:42 40.22799 -87.55145 36874 ft 450 kts 160°
2026-04-24 22:42 40.17191 -87.51572 36871 ft 450 kts 160°
2026-04-24 22:43 40.11528 -87.47978 36870 ft 449 kts 160°
2026-04-24 22:43 40.05925 -87.44433 36858 ft 449 kts 160°
2026-04-24 22:44 40.00293 -87.40879 36857 ft 451 kts 160°
2026-04-24 22:44 39.94693 -87.37224 36825 ft 451 kts 158°
2026-04-24 22:45 39.89087 -87.33431 36826 ft 453 kts 159°
2026-04-24 22:45 39.83509 -87.29673 36834 ft 453 kts 159°
2026-04-24 22:46 39.77904 -87.25909 36851 ft 452 kts 159°
2026-04-24 22:46 39.72315 -87.22168 36840 ft 453 kts 159°
2026-04-24 22:47 39.66728 -87.18435 36841 ft 450 kts 158°
2026-04-24 22:47 39.61136 -87.14708 36832 ft 453 kts 158°
2026-04-24 22:48 39.55538 -87.10983 36860 ft 452 kts 158°
2026-04-24 22:48 39.49918 -87.07252 36864 ft 455 kts 158°
2026-04-24 22:49 39.44309 -87.03532 36857 ft 451 kts 158°
2026-04-24 22:49 39.38691 -86.99816 36858 ft 454 kts 158°
2026-04-24 22:50 39.33057 -86.96097 36859 ft 457 kts 158°
2026-04-24 22:50 39.27417 -86.92378 36827 ft 456 kts 158°
2026-04-24 22:51 39.21771 -86.88662 36851 ft 455 kts 158°
2026-04-24 22:51 39.16145 -86.84965 36850 ft 457 kts 157°
2026-04-24 22:52 39.10516 -86.81139 36854 ft 458 kts 156°
2026-04-24 22:52 39.04899 -86.77315 36857 ft 457 kts 156°
2026-04-24 22:53 38.99236 -86.73472 36851 ft 457 kts 156°
2026-04-24 22:53 38.93611 -86.69663 36834 ft 458 kts 156°
2026-04-24 22:54 38.87947 -86.65838 36849 ft 460 kts 156°
2026-04-24 22:54 38.82289 -86.62022 36834 ft 460 kts 156°
2026-04-24 22:55 38.76610 -86.58201 36861 ft 462 kts 156°
2026-04-24 22:55 38.70913 -86.54373 36851 ft 461 kts 156°
2026-04-24 22:56 38.65271 -86.50590 36849 ft 459 kts 156°
2026-04-24 22:56 38.59604 -86.46797 36870 ft 462 kts 156°
2026-04-24 22:57 38.53924 -86.43004 36847 ft 463 kts 156°
2026-04-24 22:57 38.48193 -86.39181 36829 ft 463 kts 156°
2026-04-24 22:58 38.42489 -86.35384 36838 ft 463 kts 156°
2026-04-24 22:58 38.36762 -86.31579 36828 ft 464 kts 156°
2026-04-24 22:59 38.31036 -86.27781 36814 ft 466 kts 156°
2026-04-24 23:00 38.22401 -86.22066 36835 ft 465 kts 156°
2026-04-24 23:00 38.16674 -86.18284 36821 ft 461 kts 156°
2026-04-24 23:01 38.10957 -86.14516 36827 ft 466 kts 156°
2026-04-24 23:01 38.05213 -86.10737 36824 ft 465 kts 155°
2026-04-24 23:02 37.99424 -86.06935 36827 ft 466 kts 156°
2026-04-24 23:02 37.93710 -86.03188 36819 ft 466 kts 155°
2026-04-24 23:03 37.87914 -85.99396 36828 ft 467 kts 155°
2026-04-24 23:03 37.82155 -85.95632 36826 ft 467 kts 156°
2026-04-24 23:04 37.76411 -85.91887 36834 ft 466 kts 155°
2026-04-24 23:04 37.70618 -85.88115 36810 ft 465 kts 155°
2026-04-24 23:05 37.64864 -85.84378 36862 ft 468 kts 155°
2026-04-24 23:05 37.59090 -85.80630 36841 ft 467 kts 155°
2026-04-24 23:06 37.53289 -85.76875 36845 ft 466 kts 155°
2026-04-24 23:06 37.47499 -85.73134 36853 ft 468 kts 155°
2026-04-24 23:07 37.41710 -85.69398 36851 ft 469 kts 154°
2026-04-24 23:07 37.35881 -85.65642 36854 ft 469 kts 155°
2026-04-24 23:08 37.30088 -85.61918 36856 ft 472 kts 155°
2026-04-24 23:08 37.24230 -85.58157 36850 ft 470 kts 155°
2026-04-24 23:09 37.18388 -85.54413 36852 ft 471 kts 155°
2026-04-24 23:09 37.12550 -85.50678 36859 ft 473 kts 154°
2026-04-24 23:10 37.06720 -85.46955 36867 ft 471 kts 154°
2026-04-24 23:10 37.00877 -85.43231 36871 ft 474 kts 154°
2026-04-24 23:11 36.94997 -85.39489 36870 ft 472 kts 154°
2026-04-24 23:11 36.89121 -85.35757 36870 ft 474 kts 154°
2026-04-24 23:12 36.83245 -85.32031 36858 ft 472 kts 155°
2026-04-24 23:12 36.77391 -85.28325 36868 ft 473 kts 155°
2026-04-24 23:13 36.71519 -85.24614 36871 ft 473 kts 155°
2026-04-24 23:13 36.65643 -85.20908 36871 ft 475 kts 154°
2026-04-24 23:14 36.59526 -85.17842 36879 ft 471 kts 168°
2026-04-24 23:14 36.53128 -85.16106 36891 ft 471 kts 169°
2026-04-24 23:15 36.46749 -85.14440 36896 ft 470 kts 169°
2026-04-24 23:15 36.40296 -85.12764 36905 ft 472 kts 169°
2026-04-24 23:16 36.33860 -85.11098 36901 ft 471 kts 169°
2026-04-24 23:16 36.27441 -85.09441 36902 ft 472 kts 169°
2026-04-24 23:17 36.20967 -85.07774 36899 ft 474 kts 169°
2026-04-24 23:17 36.14511 -85.06115 36907 ft 473 kts 169°
2026-04-24 23:18 36.08095 -85.04469 36944 ft 474 kts 169°
2026-04-24 23:18 36.01610 -85.02808 36951 ft 473 kts 169°
2026-04-24 23:19 35.95130 -85.01150 36951 ft 476 kts 169°
2026-04-24 23:19 35.88652 -84.99496 36938 ft 476 kts 169°
2026-04-24 23:20 35.82169 -84.97845 36953 ft 474 kts 169°
2026-04-24 23:20 35.75734 -84.96207 36915 ft 473 kts 169°
2026-04-24 23:21 35.69249 -84.94560 36903 ft 479 kts 169°
2026-04-24 23:21 35.62719 -84.92905 36908 ft 477 kts 169°
2026-04-24 23:22 35.56220 -84.91258 36896 ft 476 kts 169°
2026-04-24 23:22 35.49674 -84.89600 36910 ft 482 kts 168°
2026-04-24 23:23 35.43115 -84.87941 36908 ft 479 kts 168°
2026-04-24 23:23 35.36544 -84.86282 36899 ft 480 kts 168°
2026-04-24 23:24 35.29993 -84.84631 36900 ft 481 kts 168°
2026-04-24 23:24 35.23431 -84.82980 36890 ft 481 kts 168°
2026-04-24 23:25 35.16857 -84.81329 36910 ft 480 kts 168°
2026-04-24 23:25 35.10280 -84.79680 36913 ft 480 kts 168°
2026-04-24 23:26 35.03736 -84.78041 36852 ft 480 kts 168°
2026-04-24 23:26 34.97166 -84.76399 36910 ft 481 kts 168°
2026-04-24 23:27 34.90608 -84.74763 36926 ft 483 kts 168°
2026-04-24 23:27 34.83976 -84.73110 36910 ft 480 kts 168°
2026-04-24 23:28 34.77425 -84.71481 36936 ft 482 kts 168°
2026-04-24 23:28 34.70864 -84.69852 36914 ft 481 kts 168°
2026-04-24 23:29 34.64280 -84.68220 36928 ft 483 kts 168°
2026-04-24 23:29 34.57683 -84.66586 36915 ft 482 kts 168°
2026-04-24 23:30 34.51160 -84.64890 36924 ft 482 kts 167°
2026-04-24 23:30 34.44592 -84.63165 36906 ft 480 kts 167°
2026-04-24 23:31 34.38025 -84.61447 36933 ft 482 kts 167°
2026-04-24 23:31 34.31486 -84.59740 36951 ft 482 kts 167°
2026-04-24 23:32 34.24938 -84.58035 36937 ft 482 kts 167°
2026-04-24 23:32 34.18337 -84.56319 36949 ft 484 kts 167°
2026-04-24 23:33 34.11793 -84.54621 36939 ft 481 kts 167°
2026-04-24 23:33 34.05253 -84.52927 36930 ft 483 kts 167°
2026-04-24 23:34 33.98661 -84.51332 36919 ft 482 kts 169°
2026-04-24 23:34 33.92039 -84.49891 36942 ft 484 kts 169°
2026-04-24 23:35 33.85440 -84.48447 36922 ft 482 kts 169°
2026-04-24 23:35 33.78805 -84.46993 36928 ft 484 kts 169°
2026-04-24 23:36 33.72197 -84.45542 36937 ft 482 kts 169°
2026-04-24 23:36 33.65612 -84.44092 36900 ft 484 kts 168°
2026-04-24 23:37 33.59270 -84.41349 36932 ft 484 kts 153°
2026-04-24 23:37 33.50253 -84.35951 36956 ft 484 kts 152°
2026-04-24 23:38 33.44223 -84.32346 36953 ft 484 kts 153°
2026-04-24 23:38 33.38204 -84.28757 36958 ft 486 kts 153°
2026-04-24 23:39 33.32184 -84.25176 36962 ft 482 kts 153°
2026-04-24 23:39 33.26159 -84.21596 36967 ft 484 kts 153°
2026-04-24 23:40 33.20116 -84.18014 36940 ft 485 kts 153°
2026-04-24 23:40 33.14116 -84.14462 36934 ft 483 kts 153°
2026-04-24 23:41 33.08076 -84.10892 36938 ft 484 kts 153°
2026-04-24 23:41 33.02035 -84.07327 36955 ft 486 kts 153°
2026-04-24 23:42 32.96002 -84.03773 36939 ft 484 kts 153°
2026-04-24 23:42 32.89960 -84.00219 36938 ft 484 kts 153°
2026-04-24 23:43 32.83905 -83.96663 36919 ft 484 kts 153°
2026-04-24 23:43 32.77843 -83.93108 36920 ft 485 kts 153°
2026-04-24 23:44 32.71817 -83.89579 36918 ft 486 kts 153°
2026-04-24 23:44 32.65746 -83.86030 36923 ft 486 kts 153°
2026-04-24 23:45 32.59685 -83.82491 36928 ft 487 kts 153°
2026-04-24 23:45 32.53587 -83.78937 36931 ft 487 kts 153°
2026-04-24 23:46 32.47527 -83.75410 36933 ft 486 kts 153°
2026-04-24 23:46 32.41460 -83.71884 36936 ft 486 kts 153°
2026-04-24 23:47 32.35372 -83.68351 36930 ft 488 kts 153°
2026-04-24 23:47 32.29287 -83.64826 36917 ft 487 kts 153°
2026-04-24 23:48 32.23237 -83.61326 36917 ft 487 kts 153°
2026-04-24 23:48 32.17150 -83.57810 36916 ft 486 kts 153°
2026-04-24 23:49 32.11057 -83.54295 36916 ft 486 kts 153°
2026-04-24 23:49 32.04970 -83.50790 36913 ft 488 kts 153°
2026-04-24 23:50 31.98857 -83.47275 36922 ft 487 kts 153°
2026-04-24 23:50 31.92784 -83.43787 36922 ft 489 kts 153°
2026-04-24 23:51 31.86687 -83.40291 36916 ft 487 kts 153°
2026-04-24 23:51 31.80557 -83.36781 36922 ft 486 kts 153°
2026-04-24 23:52 31.74425 -83.33276 36925 ft 492 kts 154°
2026-04-24 23:52 31.68270 -83.29763 36931 ft 491 kts 154°
2026-04-24 23:53 31.62095 -83.26247 36937 ft 492 kts 154°
2026-04-24 23:53 31.55934 -83.22792 36923 ft 493 kts 155°
2026-04-24 23:54 31.49741 -83.19327 36920 ft 491 kts 155°
2026-04-24 23:54 31.43601 -83.15895 36910 ft 492 kts 155°
2026-04-24 23:55 31.37417 -83.12444 36892 ft 493 kts 155°
2026-04-24 23:55 31.31174 -83.08964 36915 ft 496 kts 155°
2026-04-24 23:56 31.24967 -83.05508 36931 ft 496 kts 155°
2026-04-24 23:56 31.18725 -83.02038 36921 ft 494 kts 155°
2026-04-24 23:57 31.12516 -82.98592 36926 ft 495 kts 155°
2026-04-24 23:57 31.06288 -82.95139 36920 ft 495 kts 155°
2026-04-24 23:58 31.00031 -82.91676 36941 ft 496 kts 155°
2026-04-24 23:58 30.93787 -82.88225 36935 ft 496 kts 156°
2026-04-24 23:59 30.87747 -82.84357 36920 ft 499 kts 144°
2026-04-24 23:59 30.82249 -82.79435 36921 ft 499 kts 142°
2026-04-25 00:00 30.76736 -82.74445 36921 ft 499 kts 143°
2026-04-25 00:00 30.71281 -82.69520 36925 ft 499 kts 143°
2026-04-25 00:01 30.65786 -82.64568 36914 ft 499 kts 143°
2026-04-25 00:01 30.60274 -82.59610 36924 ft 498 kts 142°
2026-04-25 00:02 30.54781 -82.54678 36927 ft 500 kts 143°
2026-04-25 00:02 30.49297 -82.49760 36932 ft 500 kts 143°
2026-04-25 00:03 30.43821 -82.44858 36437 ft 495 kts 143°
2026-04-25 00:03 30.41085 -82.42411 35377 ft 502 kts 143°
2026-04-25 00:03 30.38273 -82.39899 34357 ft 507 kts 143°
2026-04-25 00:04 30.35514 -82.37436 33468 ft 506 kts 143°
2026-04-25 00:04 30.32720 -82.34943 32618 ft 504 kts 143°
2026-04-25 00:04 30.29943 -82.32467 31680 ft 503 kts 143°
2026-04-25 00:04 30.27180 -82.30005 30743 ft 503 kts 143°
2026-04-25 00:05 30.24423 -82.27557 30093 ft 495 kts 144°
2026-04-25 00:05 30.21533 -82.25435 29597 ft 487 kts 153°
2026-04-25 00:05 30.18439 -82.23868 29026 ft 480 kts 162°
2026-04-25 00:05 30.15245 -82.22875 28439 ft 474 kts 170°
2026-04-25 00:06 30.12016 -82.22175 27834 ft 470 kts 172°
2026-04-25 00:06 30.08792 -82.21510 27246 ft 466 kts 172°
2026-04-25 00:06 30.05613 -82.20863 26637 ft 463 kts 172°
2026-04-25 00:06 30.02429 -82.20221 26017 ft 459 kts 172°
2026-04-25 00:07 29.99272 -82.19588 25417 ft 456 kts 172°
2026-04-25 00:07 29.96160 -82.18967 24806 ft 453 kts 172°
2026-04-25 00:07 29.93054 -82.18349 24193 ft 450 kts 172°
2026-04-25 00:07 29.90024 -82.17746 23620 ft 446 kts 172°
2026-04-25 00:08 29.86945 -82.17129 23316 ft 452 kts 172°
2026-04-25 00:08 29.83806 -82.16501 23015 ft 455 kts 172°
2026-04-25 00:08 29.80675 -82.15875 22682 ft 451 kts 172°
2026-04-25 00:08 29.77603 -82.15261 22332 ft 447 kts 172°
2026-04-25 00:09 29.74515 -82.14645 21978 ft 445 kts 172°
2026-04-25 00:09 29.71486 -82.14042 21634 ft 444 kts 172°
2026-04-25 00:09 29.68440 -82.13435 21283 ft 441 kts 172°
2026-04-25 00:09 29.65442 -82.12839 20941 ft 439 kts 172°
2026-04-25 00:10 29.62408 -82.12237 20596 ft 438 kts 172°
2026-04-25 00:10 29.59426 -82.11645 20257 ft 437 kts 172°
2026-04-25 00:10 29.56386 -82.11041 19919 ft 435 kts 172°
2026-04-25 00:10 29.53431 -82.10455 19590 ft 433 kts 172°
2026-04-25 00:11 29.50431 -82.09861 19210 ft 432 kts 172°
2026-04-25 00:11 29.47493 -82.09280 18880 ft 430 kts 172°
2026-04-25 00:11 29.44549 -82.08697 18479 ft 428 kts 172°
2026-04-25 00:11 29.41604 -82.08115 18246 ft 427 kts 172°
2026-04-25 00:12 29.38654 -82.07533 17865 ft 428 kts 172°
2026-04-25 00:12 29.35746 -82.06959 17483 ft 423 kts 172°
2026-04-25 00:12 29.32900 -82.06382 17182 ft 413 kts 169°
2026-04-25 00:12 29.30174 -82.05421 16898 ft 404 kts 158°
2026-04-25 00:13 29.27669 -82.04006 16497 ft 399 kts 152°
2026-04-25 00:13 29.25210 -82.02475 15989 ft 395 kts 152°
2026-04-25 00:13 29.22822 -82.00978 15589 ft 392 kts 152°
2026-04-25 00:13 29.20409 -81.99464 15178 ft 391 kts 152°
2026-04-25 00:14 29.18064 -81.97993 14791 ft 387 kts 152°
2026-04-25 00:14 29.15691 -81.96503 14379 ft 383 kts 152°
2026-04-25 00:14 29.13376 -81.95050 13975 ft 380 kts 152°
2026-04-25 00:14 29.11056 -81.93594 13597 ft 379 kts 152°
2026-04-25 00:15 29.08739 -81.92141 13133 ft 376 kts 152°
2026-04-25 00:15 29.06565 -81.90520 12737 ft 371 kts 141°
2026-04-25 00:15 29.04649 -81.88565 12372 ft 367 kts 137°
2026-04-25 00:15 29.02797 -81.86582 11944 ft 364 kts 137°
2026-04-25 00:16 29.00946 -81.84596 11539 ft 359 kts 137°
2026-04-25 00:16 28.99141 -81.82658 11205 ft 353 kts 137°
2026-04-25 00:16 28.97474 -81.80605 10807 ft 348 kts 128°
2026-04-25 00:16 28.96007 -81.78451 10539 ft 338 kts 127°
2026-04-25 00:17 28.94603 -81.76350 10303 ft 327 kts 127°
2026-04-25 00:17 28.93246 -81.74327 10057 ft 318 kts 127°
2026-04-25 00:17 28.91916 -81.72349 9780 ft 311 kts 127°
2026-04-25 00:17 28.90606 -81.70406 9462 ft 305 kts 127°
2026-04-25 00:18 28.89325 -81.68507 9162 ft 299 kts 127°
2026-04-25 00:18 28.88080 -81.66663 8878 ft 294 kts 127°
2026-04-25 00:18 28.86830 -81.64812 8585 ft 291 kts 127°
2026-04-25 00:18 28.85603 -81.62997 8329 ft 287 kts 127°
2026-04-25 00:19 28.84388 -81.61199 8111 ft 284 kts 127°
2026-04-25 00:19 28.83190 -81.59428 7842 ft 282 kts 127°
2026-04-25 00:19 28.82004 -81.57675 7579 ft 279 kts 127°
2026-04-25 00:19 28.80825 -81.55935 7322 ft 275 kts 127°
2026-04-25 00:20 28.79654 -81.54205 7079 ft 272 kts 127°
2026-04-25 00:20 28.78528 -81.52494 6840 ft 268 kts 123°
2026-04-25 00:20 28.77543 -81.50702 6680 ft 264 kts 121°
2026-04-25 00:20 28.76581 -81.48937 6523 ft 259 kts 122°
2026-04-25 00:21 28.75622 -81.47218 6332 ft 255 kts 122°
2026-04-25 00:21 28.74672 -81.45531 6117 ft 250 kts 122°
2026-04-25 00:21 28.73743 -81.43887 5965 ft 245 kts 122°
2026-04-25 00:21 28.72991 -81.42162 5746 ft 241 kts 105°
2026-04-25 00:22 28.72551 -81.40320 5491 ft 241 kts 105°
2026-04-25 00:22 28.72054 -81.38502 5237 ft 241 kts 108°
2026-04-25 00:22 28.71507 -81.36689 4984 ft 240 kts 108°
2026-04-25 00:22 28.70900 -81.34897 4717 ft 240 kts 120°
2026-04-25 00:23 28.69781 -81.33499 4463 ft 239 kts 146°
2026-04-25 00:23 28.68255 -81.32876 4219 ft 236 kts 175°
2026-04-25 00:23 28.66605 -81.32816 4017 ft 233 kts 180°
2026-04-25 00:23 28.64997 -81.32828 3860 ft 231 kts 180°
2026-04-25 00:24 28.63374 -81.32836 3574 ft 232 kts 179°
2026-04-25 00:24 28.61762 -81.32828 3281 ft 234 kts 179°
2026-04-25 00:24 28.60137 -81.32816 3001 ft 231 kts 178°
2026-04-25 00:24 28.58524 -81.32805 2708 ft 228 kts 178°
2026-04-25 00:25 28.56971 -81.32797 2421 ft 212 kts 178°
2026-04-25 00:25 28.55530 -81.32793 2161 ft 200 kts 177°
2026-04-25 00:25 28.54172 -81.32786 1911 ft 189 kts 176°
2026-04-25 00:25 28.52888 -81.32776 1673 ft 179 kts 176°
2026-04-25 00:26 28.51675 -81.32764 1442 ft 169 kts 175°
2026-04-25 00:26 28.50523 -81.32754 1229 ft 161 kts 175°
2026-04-25 00:26 28.49412 -81.32744 1018 ft 153 kts 175°
2026-04-25 00:26 28.48382 -81.32733 821 ft 147 kts 175°
2026-04-25 00:27 28.47367 -81.32724 602 ft 142 kts 175°
2026-04-25 00:27 28.46386 -81.32709 403 ft 136 kts 175°
2026-04-25 00:27 28.45447 -81.32706 243 ft 134 kts 175°
2026-04-25 00:27 28.44509 -81.32700 106 ft 133 kts 175°
2026-04-25 00:28 28.43696 -81.32681 97 ft 100 kts 180°
2026-04-25 00:28 28.43301 -81.32678 100 ft 27 kts 176°
2026-04-25 00:28 28.43206 -81.32671 100 ft 9 kts 172°
2026-04-25 00:28 28.43141 -81.32645 100 ft 10 kts 158°
2026-04-25 00:29 28.43080 -81.32603 100 ft 9 kts 135°
2026-04-25 00:29 28.43058 -81.32539 100 ft 9 kts 90°
2026-04-25 00:29 28.43058 -81.32466 100 ft 9 kts 90°
2026-04-25 00:29 28.43058 -81.32394 100 ft 9 kts 90°
2026-04-25 00:30 28.43058 -81.32356 100 ft 0 kts 90°
2026-04-25 00:32 28.43058 -81.32355 100 ft 0 kts 90°
2026-04-25 00:33 28.43058 -81.32349 100 ft 1 kts 90°
2026-04-25 00:35 28.43058 -81.32334 100 ft 6 kts 90°
2026-04-25 00:35 28.43058 -81.32275 99 ft 8 kts 90°
2026-04-25 00:36 28.43059 -81.32201 98 ft 10 kts 89°
2026-04-25 00:36 28.43060 -81.32116 97 ft 10 kts 89°
2026-04-25 00:36 28.43061 -81.32032 97 ft 10 kts 90°
2026-04-25 00:36 28.43057 -81.31947 96 ft 11 kts 106°
2026-04-25 00:37 28.43016 -81.31866 94 ft 12 kts 122°
2026-04-25 00:37 28.42974 -81.31792 93 ft 6 kts 122°
2026-04-25 00:37 28.42950 -81.31749 92 ft 2 kts 124°
2026-04-25 00:37 28.42939 -81.31732 91 ft 0 kts 128°
2026-04-25 00:39 28.42936 -81.31728 92 ft 3 kts 130°
2026-04-25 00:39 28.42893 -81.31701 92 ft 9 kts 164°
2026-04-25 00:39 28.42829 -81.31683 94 ft 10 kts 167°
2026-04-25 00:39 28.42757 -81.31664 94 ft 10 kts 167°
2026-04-25 00:40 28.42695 -81.31643 94 ft 6 kts 144°
2026-04-25 00:40 28.42677 -81.31618 94 ft 4 kts 124°
2026-04-25 00:40 28.42660 -81.31591 94 ft 3 kts 127°
2026-04-25 00:40 28.42653 -81.31582 94 ft 1 kts 131°
2026-04-25 00:41 28.42646 -81.31572 94 ft 0 kts 132°